Regional Weather Roundup
Issued by NWS New Orleans/Baton Rouge, LA

Home | Current Version | Previous Version | Graphics & Text | Print | Product List | Glossary On
Versions: 1 2 3 4 5 6 7 8 9 10 11 12 13 14 15 16 17 18 19 20 21 22 23 24 25 26 27 28 29 30 31 32 33 34 35 36 37 38 39 40 41 42 43 44 45 46 47 48 49 50
066
ASUS44 KLIX 281410
RWRLIX
NEW ORLEANS REGIONAL WEATHER ROUNDUP
NATIONAL WEATHER SERVICE NEW ORLEANS LA
800 AM CST SAT FEB 28 2015

NOTE: "FAIR" INDICATES FEW OR NO CLOUDS BELOW 12,000 FEET WITH NO
      SIGNIFICANT WEATHER AND/OR OBSTRUCTIONS TO VISIBILITY.
      SKY/WX - SKY CONDITION AND SIGNIFICANT WEATHER.
      TMP - AIR TEMPERATURE.     DP    - DEWPOINT TEMPERATURE.
      RH  - RELATIVE HUMIDITY.   PRES  - PRESSURE.
      HI  - HEAT INDEX.          WCI   - WIND CHILL INDEX.

*  THESE STATIONS ARE NOT NWS OR FAA STATIONS AND ARE NOT UNDER
   NWS QUALITY CONTROL.

LAZ038-040-048-061>063-065>067-069-281500-
SOUTHEAST LOUISIANA

CITY           SKY/WX    TMP DP  RH WIND       PRES   REMARKS
N.O. AUDUBON     N/A     44  32  64 MISG        N/A
N.O. INTL ARPT PTSUNNY   43  30  60 NE15      30.41S
N.O. LAKEFRONT MOSUNNY   44  30  57 NE18      30.42S
SLIDELL        SUNNY     40  26  57 NE7       30.43R
BATON ROUGE    MOSUNNY   40  26  57 E9        30.41R WCI  34
BOOTHVILLE     MOSUNNY   49  42  77 NE14G24   30.38R
BELLE CHASSE   PTSUNNY   43  30  60 NE15      30.40S
BOGALUSA*        N/A     39  26  60 NE6       30.46S WCI  34
GALLIANO*      CLOUDY    48  37  65 MISG      30.39R
NEW ROADS*     CLOUDY    41  26  53 NE8       30.41R
GONZALES*      CLOUDY    40  28  64 E7        30.40R WCI  35
HAMMOND*       MOSUNNY   41  25  52 E9        30.43F
HOUMA*         CLOUDY    45  32  61 NE14      30.39R
PORT FOURCHON* PTSUNNY   48  41  76 NE18G26   30.40R

$$

MSZ070-080>082-281500-
SOUTHERN MISSISSIPPI

CITY           SKY/WX    TMP DP  RH WIND       PRES   REMARKS
MCCOMB         SUNNY     37  23  56 E7        30.40F WCI  32
GULFPORT       MOSUNNY   39  25  57 N9        30.43S WCI  33
BILOXI         PTSUNNY   39  26  59 NE14      30.43R WCI  31
PASCAGOULA     MOSUNNY   40  27  59 NE12      30.44R WCI  33
STENNIS ARPT*  SUNNY     39  21  48 NE8G16    30.44  WCI  34

$$

COASTAL OBSERVATIONS
LAKE AND NEARSHORE STATIONS

STATION/POSITION TIME  TEMP    WIND        PRES    WAVE
                       AIR SEA DIR/SP/G            HT/PER
                 (UTC) (F)     (DEG/KT/KT) (MB)    (FT/S)
PASCAGOULA       1400   40      30/ 11/ 14 1029.8
WAVELAND YACHT   1400   39 46   40/ 12/ 15 1030.2
GRAND ISLE       1400   47 51   50/ 13/ 19 1028.7
SOUTHWEST PASS   1400   53 46   30/ 12/ 13 1027.9
NEW CANAL        1400   42      60/ 18/ 20 1029.7
SHELL BEACH      1400   44 49   40/ 18/ 20 1029.5

OFFSHORE STATIONS

STATION/POSITION TIME  TEMP    WIND        PRES    WAVE
                       AIR SEA DIR/SP/G            HT/PER
                 (UTC) (F)     (DEG/KT/KT) (MB)    (FT/S)
64 S DAUPHIN ISL 1340   60 69   70/ 19/ 23 1027.7    8/ 7

$$




USA.gov is the U.S. government's official web portal to all federal, state and local government web resources and services.